sat.trackr.live / text

‹ back to catalog

QIANFAN-146

NORAD 69105 · 2026-108B

PAYLOAD ACTIVE UNKNOWN

§ Identity

Operator
Country
PRC
Launch date
2026-05-17
Launch site
WSC
Launch vehicle
Mass (kg)
RCS (m²)

External: N2YO · Heavens-Above · Gunter

§ Orbital elements

Epoch: 2026-09-20T02:48:14.257152Z

Period
106.58 min
Inclination
89.0196°
Eccentricity
0.0001958
Mean motion
13.51040124 rev/d
Perigee alt
1,067.0 km
Apogee alt
1,069.9 km
Semi-major
7,446.6 km
B*
1.7824e-4
RAAN
12.4093°
Arg perigee
99.9351°
Mean anomaly
260.2021°
Rev number
1,735

§ Raw data

QIANFAN-1461 69105U 26108B   26263.11683168  .00000127  00000+0  17824-3 0  99952 69105  89.0196  12.4093 0001958  99.9351 260.2021 13.51040124 17354

JSON: /api/v1/satellites/69105 · /tle

For live sub-satellite position, see the globe view (requires WebGL).

§ Visibility from observer

Set your observer location to see the next 7 days of passes ≥ 10°. The values pass through the URL so the page stays shareable.

No JS? Fill the form by hand. The geolocation button needs JavaScript.